Location: The Saddle
(36.8333°N, 80.3417°W)
Time: 13:05:10
(UTC-04:00)

AO-7 - Pass Details

Date: 03 April 2023
Orbit: 1439 x 1459 km, 101.9° (Epoch: 02 June)

Event Time Altitude Azimuth Distance (km) Brightness Sun altitude
Rises 04:20:07 0° 38° (NE) 4,553 ? -31.3°
Reaches altitude 10° 04:25:02 10° 64° (ENE) 3,565 ? -30.5°
Maximum altitude 04:28:42 13° 91° (E) 3,292 ? -29.9°
Drops below altitude 10° 04:32:21 10° 118° (ESE) 3,551 ? -29.3°
Sets 04:37:10 0° 143° (SE) 4,520 ? -28.5°
